Vertical_Velocity
1 -3 -6 3 1 -3 1 -2 -4 -4 7 -6 -8 5 -9 -4 -5 -0 -3 -3 -1 -3 -1 -7 -6 -6 -2 -4 2 -0 -2 0 -2 -1 1 0 1 1 3 2 4 8 7 2
-0 3 -4 -8 -7 -5 -5 -7 -6 -6 -2 -5 -12 9 -5 -6 -3 -3 -3 -2 -2 4 -7 -8 -5 -5 -5 -2 1 2 -4 -1 1 -1 9 5 6 16 4 -1 5 8 8 2
1 0 -1 -2 -2 -2 -2 -4 -0 -6 -1 -8 2 -7 3 -2 -3 -2 -5 4 -5 -1 -9 -7 -3 -2 -2 -5 -7 -3 -3 -6 -5 -5 -3 1 4 4 2 13 7 -3 2 10
-2 1 -1 -2 -2 -2 -1 -5 -1 -1 -1 -6 -0 -5 -4 4 2 -0 -4 -2 -2 -10 -10 -3 -3 -4 -4 -3 -2 -6 -2 -1 -4 -1 1 -1 3 9 9 10 3 5 8 3
1 -1 -2 -1 0 -0 3 -1 -1 -2 1 -2 0 -9 2 -1 -8 -1 -2 -3 -2 -6 -10 -8 -3 -2 -1 -4 -3 -2 -3 -3 -2 -3 -4 -0 4 5 10 19 8 3 1 4
-1 -3 -1 1 0 -0 -0 -1 -4 -0 -1 -2 -0 -8 2 -1 1 -4 -4 0 -2 -4 -9 0 -5 -8 -4 -3 -4 -2 -3 -3 -2 -6 -1 -1 -1 4 5 -3 -3 -1 -0 -1
-0 0 -2 -1 1 -0 -2 -2 0 -1 -2 -2 -2 -3 -5 6 -0 0 1 -2 -0 1 -4 -4 -6 -3 -4 -2 0 -3 -4 -5 -2 -2 -2 4 -1 2 0 12 11 4 2 -1
3 0 1 -0 -1 -2 -1 0 0 -2 -2 -4 -4 -0 4 -0 1 -4 -6 -2 -2 -3 -1 -1 -4 -5 -3 -4 -1 -3 -5 -3 -1 -5 -1 -3 -5 -4 -2 -6 -8 -5 -5 -3
-0 -0 -2 -1 -1 -1 -2 -3 -2 -1 -2 -0 -1 -2 1 -2 -3 -3 -1 -1 -3 -0 -3 -8 -9 -6 -4 2 -0 -3 -2 -2 1 3 3 -0 1 0 -2 -3 -4 9 5 4
-2 -2 -2 -2 -3 -3 -2 -1 -0 -0 -1 -2 1 -2 -3 -2 -2 -2 -3 -2 -3 -3 -1 -2 -3 -1 0 1 -1 -4 -3 -1 -1 2 2 -2 0 -0 7 1 -1 1 2 3
-3 0 -3 -1 -1 -2 -0 -0 -2 -1 -1 -0 -2 -2 -2 -3 -2 -2 -2 -3 -3 -4 -5 -4 -1 -0 -1 -3 -7 -5 -5 -3 -4 -3 -3 -1 0 -2 -1 -0 -0 0 2 -0
-1 -2 -2 -1 -2 -1 1 1 1 0 -1 -1 -1 -2 -1 -1 -1 -0 2 1 -1 -1 1 4 3 0 -2 -3 -2 -1 -2 -1 -0 -1 -1 -0 -1 -2 0 1 2 2 0 1
-1 -2 -2 -1 -1 -0 0 -0 1 -0 0 -2 -2 3 -1 -1 -1 0 -1 -1 -1 -0 -0 -2 -1 0 -0 -1 -2 -1 0 0 -0 0 0 0 0 1 3 3 2 -0 -2 -1
-1 -1 -0 -1 0 -0 -1 -1 -2 -2 -2 -1 -0 -1 0 -0 -1 -1 -1 0 -0 0 -0 2 2 0 -2 -2 -2 -1 0 2 3 3 3 2 2 1 2 3 2 2 2 2
-2 -3 -3 -1 -1 -2 -2 -2 -1 -2 -1 -1 -1 -2 -3 -1 -3 -5 -4 -3 -3 -4 -1 -1 -2 -3 -2 -1 0 1 1 -1 -2 -2 -3 -2 -1 -1 -1 0 1 1 0 -0
1 1 0 0 1 -0 -1 -1 -1 -1 -2 -4 -4 -5 -2 -2 -0 -1 -1 -1 -1 -0 -0 -1 -2 -3 -1 2 1 -1 -1 -0 0 -1 -0 0 1 2 2 1 -1 -2 -2 -2
-2 -1 -0 -0 -1 -1 -1 -2 -1 -1 -1 0 1 0 1 -0 -0 1 2 2 2 2 0 -0 2 3 -1 -6 -5 -5 -5 -4 0 2 2 1 -0 -1 -2 -1 -1 -0 0 1
-0 -1 -1 -1 -0 1 -1 -0 -1 -1 -0 -1 -1 -0 -1 -2 -2 -4 -1 1 1 1 1 1 -1 -4 -3 -0 0 2 4 2 -1 -2 -2 -1 -1 -1 -1 -1 -1 -1 0 -0
-0 -1 0 0 -2 -1 0 -1 -0 2 -1 1 -2 -1 0 2 -1 -0 0 0 -1 0 1 2 -2 -1 0 -1 -2 -3 -2 -3 -4 -4 -3 -2 1 -0 -2 -2 -2 -2 2 -0
0 -0 -2 -1 -3 -1 -2 -1 -1 -0 -0 1 -1 -1 1 -1 0 4 -2 -0 -1 -4 -2 -3 -3 -4 -5 -5 -4 -4 -1 1 1 -0 -0 -0 0 -1 -2 -4 -1 -1 0 3
-1 -2 -4 -3 -3 3 -2 -3 -2 -3 -3 -0 -1 -1 -3 -1 0 2 2 2 1 -1 -1 -2 -2 -1 -0 -0 -1 -1 -0 -1 -2 -2 -1 -1 -1 -1 -2 1 -3 1 1 -1
0 -3 1 -2 -2 -2 1 -1 -4 -1 1 -2 -3 -3 -2 -4 0 -2 -2 -1 -0 -0 -0 1 1 -0 1 -0 0 -1 0 -1 1 -0 -1 -2 -2 -2 0 -0 2 -2 -2 2
-3 -3 -3 -4 4 -2 -4 0 -1 -0 1 -1 -1 0 -1 -3 -2 -3 -3 -3 -3 -1 -1 -1 -2 -3 -2 0 -2 -1 -0 0 -1 -2 -0 -1 -2 -1 -3 -2 -4 -4 -4 -2
3 -5 -1 -5 7 -2 3 5 -5 0 2 -0 4 -1 0 1 -1 -0 -2 -2 -2 -1 -2 -0 0 2 -1 -0 2 1 -1 -2 -1 -0 -1 -0 -1 1 -3 -3 -3 -2 -2 -2
4 2 -6 1 2 -1 -6 -0 2 0 1 1 -2 -0 -2 -0 -1 0 1 -0 -1 -1 -1 -1 -1 -2 1 -1 -1 -0 -2 -0 -0 1 1 -1 -0 -2 -1 -5 -5 -2 -6 -3
-3 -5 -12 -2 1 5 8 2 1 -1 -3 -2 2 -1 -3 -2 -1 -1 -1 -1 -0 -0 -1 -0 -1 -1 1 1 -0 -0 -0 2 2 -0 0 -1 -0 -2 -2 1 1 -11 -1 -3
Height
5695 5703 5710 5717 5722 5726 5730 5732 5735 5738 5740 5743 5743 5744 5744 5742 5741 5740 5738 5736 5734 5730 5726 5725 5723 5720 5716 5711 5707 5702 5701 5697 5696 5696 5699 5700 5705 5710 5714 5718 5723 5728 5725 5725
5693 5700 5706 5711 5717 5721 5725 5728 5731 5734 5735 5736 5736 5736 5736 5735 5733 5731 5729 5726 5722 5720 5714 5711 5706 5702 5697 5692 5686 5680 5675 5670 5668 5669 5672 5674 5681 5688 5693 5700 5705 5709 5708 5709
5691 5698 5703 5708 5713 5717 5720 5722 5725 5727 5728 5728 5729 5730 5729 5728 5726 5723 5720 5717 5713 5710 5705 5699 5692 5684 5678 5673 5668 5664 5658 5650 5645 5643 5644 5646 5654 5663 5673 5683 5686 5686 5690 5695
5688 5694 5699 5704 5708 5711 5714 5717 5719 5721 5723 5724 5725 5725 5723 5723 5719 5715 5711 5709 5706 5703 5695 5686 5680 5675 5669 5663 5658 5653 5647 5641 5634 5631 5631 5632 5638 5647 5655 5662 5671 5673 5676 5680
5688 5692 5696 5701 5704 5707 5711 5712 5715 5717 5719 5720 5720 5719 5717 5714 5711 5709 5705 5702 5700 5697 5690 5679 5674 5669 5663 5658 5653 5646 5640 5634 5630 5627 5627 5629 5634 5640 5646 5652 5656 5659 5665 5669
5685 5690 5694 5698 5701 5705 5708 5711 5713 5714 5715 5716 5715 5715 5714 5711 5708 5704 5700 5696 5694 5691 5686 5680 5674 5668 5662 5657 5650 5645 5638 5634 5631 5629 5629 5631 5634 5637 5642 5647 5649 5653 5657 5660
5685 5690 5694 5698 5702 5705 5708 5709 5711 5712 5713 5713 5712 5712 5709 5707 5703 5698 5693 5688 5686 5685 5683 5677 5672 5666 5662 5656 5651 5646 5640 5637 5633 5631 5630 5630 5633 5636 5639 5641 5645 5647 5649 5652
5688 5693 5695 5699 5702 5704 5706 5708 5709 5709 5710 5711 5709 5708 5706 5703 5699 5693 5688 5685 5683 5682 5680 5676 5671 5667 5662 5657 5652 5648 5643 5638 5635 5632 5632 5632 5633 5634 5637 5639 5642 5644 5644 5645
5690 5694 5697 5700 5702 5705 5706 5708 5708 5708 5707 5707 5706 5705 5704 5700 5697 5693 5690 5686 5683 5682 5678 5674 5670 5666 5662 5658 5653 5649 5645 5641 5638 5635 5634 5633 5634 5635 5636 5637 5638 5638 5639 5639
5693 5696 5698 5701 5703 5705 5706 5706 5706 5705 5706 5706 5705 5703 5702 5699 5696 5693 5690 5687 5684 5681 5678 5673 5669 5665 5662 5658 5653 5650 5647 5643 5639 5637 5636 5635 5634 5634 5635 5635 5634 5635 5636 5636
5696 5699 5702 5703 5703 5704 5704 5705 5705 5705 5705 5704 5703 5702 5700 5697 5694 5692 5689 5686 5684 5681 5677 5674 5671 5667 5662 5656 5653 5650 5645 5643 5641 5638 5636 5635 5634 5634 5633 5633 5632 5632 5632 5630
5699 5701 5702 5703 5704 5705 5705 5705 5705 5704 5704 5702 5701 5701 5697 5695 5693 5690 5687 5684 5682 5679 5677 5674 5670 5664 5660 5656 5654 5652 5649 5647 5644 5641 5639 5637 5635 5634 5633 5632 5630 5629 5628 5626
5703 5704 5705 5706 5707 5706 5705 5704 5703 5702 5701 5700 5700 5700 5696 5693 5691 5689 5686 5683 5680 5678 5676 5672 5669 5665 5662 5659 5656 5652 5649 5647 5644 5642 5640 5638 5637 5635 5633 5631 5629 5627 5625 5623
5707 5707 5707 5707 5706 5705 5703 5702 5701 5700 5700 5699 5698 5697 5695 5693 5690 5688 5685 5682 5679 5677 5674 5671 5668 5665 5661 5658 5655 5653 5650 5647 5644 5642 5639 5636 5634 5631 5628 5626 5623 5620 5617 5614
5709 5708 5706 5705 5704 5703 5702 5702 5701 5700 5699 5699 5698 5695 5693 5692 5690 5688 5685 5682 5679 5676 5673 5670 5667 5664 5660 5657 5654 5652 5649 5646 5643 5639 5636 5633 5630 5627 5624 5620 5617 5613 5609 5606
5708 5708 5707 5706 5705 5705 5704 5703 5702 5701 5700 5698 5697 5695 5693 5690 5688 5685 5682 5679 5676 5674 5671 5668 5664 5661 5658 5656 5653 5649 5645 5641 5638 5634 5631 5628 5624 5621 5617 5613 5608 5604 5600 5595
5709 5708 5708 5707 5706 5705 5705 5703 5702 5700 5698 5697 5695 5692 5689 5687 5684 5682 5679 5676 5673 5670 5667 5664 5661 5658 5655 5651 5647 5644 5641 5638 5634 5630 5626 5622 5618 5613 5609 5604 5599 5593 5588 5583
5710 5709 5709 5708 5707 5706 5705 5703 5701 5700 5697 5695 5692 5689 5687 5684 5681 5677 5674 5672 5669 5665 5663 5660 5657 5653 5650 5647 5643 5640 5636 5632 5629 5624 5619 5614 5609 5604 5598 5593 5587 5581 5575 5568
5712 5711 5709 5708 5706 5706 5703 5701 5700 5697 5694 5691 5689 5686 5683 5681 5678 5674 5670 5668 5665 5662 5659 5656 5652 5649 5646 5642 5639 5635 5631 5626 5621 5616 5611 5605 5600 5594 5587 5580 5573 5566 5559 5550
5711 5710 5709 5707 5705 5704 5702 5700 5697 5695 5693 5689 5686 5683 5680 5677 5675 5672 5667 5663 5660 5657 5654 5651 5648 5645 5642 5637 5633 5628 5622 5617 5612 5606 5600 5593 5587 5581 5574 5567 5559 5551 5543 5534
5710 5709 5707 5706 5704 5703 5700 5697 5695 5692 5692 5686 5682 5679 5675 5673 5671 5667 5663 5660 5656 5652 5648 5646 5642 5638 5634 5629 5625 5620 5615 5609 5602 5595 5588 5582 5575 5568 5560 5551 5542 5533 5524 5515
5710 5708 5705 5703 5700 5700 5697 5696 5693 5690 5685 5681 5677 5674 5670 5667 5665 5661 5657 5653 5650 5646 5643 5640 5636 5631 5626 5622 5617 5611 5605 5599 5592 5586 5580 5572 5564 5556 5547 5538 5527 5517 5507 5497
5706 5703 5702 5700 5698 5694 5692 5690 5687 5683 5680 5676 5672 5669 5665 5662 5658 5655 5651 5647 5643 5639 5636 5632 5628 5623 5619 5613 5607 5601 5595 5589 5583 5576 5568 5560 5551 5542 5532 5522 5511 5499 5488 5478
5702 5696 5694 5690 5693 5686 5684 5684 5679 5677 5674 5669 5667 5663 5660 5656 5652 5649 5645 5641 5637 5633 5629 5625 5620 5615 5610 5604 5598 5592 5586 5580 5572 5564 5556 5547 5538 5527 5516 5505 5493 5483 5473 5465
5694 5690 5683 5682 5681 5679 5678 5674 5670 5667 5664 5660 5658 5655 5653 5650 5646 5642 5638 5634 5630 5626 5621 5617 5612 5607 5601 5596 5591 5584 5577 5569 5561 5552 5543 5534 5524 5513 5501 5489 5478 5469 5460 5451
5683 5679 5672 5670 5672 5670 5668 5666 5662 5658 5653 5650 5648 5646 5645 5642 5639 5634 5631 5626 5622 5617 5612 5608 5603 5598 5592 5586 5580 5573 5566 5557 5549 5541 5531 5522 5511 5499 5487 5476 5465 5456 5447 5437